Trinidad, CO

5:33 AM MDT on March 23, 2017 (GMT -0600)
Stokes

Weather History for KTAD - December, 2012

Change the Weather History Date:

Monday, December 31, 2012

  Actual Average Record
Temperature  
Mean Temperature 21 °F 32 °F  
Max Temperature 25 °F 46 °F 67 °F (1955)
Min Temperature 16 °F 17 °F -8 °F (1967)
Degree Days  
Heating Degree Days 44 34  
Month to date heating degree days 1001 1037  
Since 1 July heating degree days 2049 2268  
Cooling Degree Days 0 0  
Month to date cooling degree days 0 0  
Year to date cooling degree days 1175 719  
Moisture  
Dew Point 12 °F    
Average Humidity 71    
Maximum Humidity 84    
Minimum Humidity 57    
Precipitation  
Precipitation 0.02 in 0.02 in 0.16 in (1984)
Month to date precipitation 0.31  
Sea Level Pressure  
Sea Level Pressure 29.96 in    
Wind  
Wind Speed 2 mph (North)    
Max Wind Speed 9 mph    
Max Gust Speed 12 mph    
Visibility 7 miles    
Events Fog , Snow    
T = Trace of Precipitation, MM = Missing Value Source: NWS Daily Summary

Daily Weather History Graph

Daily Weather History Graph

Search for Another Location

Airport or City:

Trip Planner

Search our weather history database for the weather conditions in past years. The results will help you decide how hot, cold, wet, or windy it might be!

Date:

Astronomy

Dec. 31, 2012 Rise Set
Actual Time 7:11 AM MST 4:50 PM MST
Civil Twilight 6:42 AM MST 5:19 PM MST
Nautical Twilight 6:09 AM MST 5:51 PM MST
Astronomical Twilight 5:37 AM MST 6:23 PM MST
Moon 8:18 PM MST (12/31) 8:58 AM MST (12/31)
Length of Visible Light 10h 37m
Length of Day
9h 38m
Waning Gibbous, 90% of the Moon is Illuminated
Dec 31
Waning Gibbous
Jan 4
Last Quarter
Jan 11
New
Jan 18
First Quarter
Jan 26
Full

Hourly Weather History & Observations

Time (MST) Temp. Windchill Dew Point Humidity Pressure Visibility Wind Dir Wind Speed Gust Speed Precip Events Conditions
12:54 AM 21.9 °F 12.5 °F 8.1 °F 55% 29.93 in 10.0 mi NNW 8.1 mph - N/A   Mostly Cloudy
1:31 AM 21.2 °F 12.6 °F 8.6 °F 58% 29.93 in 10.0 mi NW 6.9 mph - N/A   Overcast
1:54 AM 21.9 °F 15.7 °F 8.1 °F 55% 29.93 in 10.0 mi NW 4.6 mph - N/A   Overcast
2:54 AM 21.9 °F 17.2 °F 8.1 °F 55% 29.92 in 10.0 mi NW 3.5 mph - N/A   Overcast
3:54 AM 21.9 °F - 8.1 °F 55% 29.90 in 10.0 mi Calm Calm - N/A   Overcast
4:32 AM 21.2 °F 14.9 °F 8.6 °F 58% 29.88 in 10.0 mi NW 4.6 mph - N/A   Overcast
4:54 AM 21.0 °F 16.2 °F 9.0 °F 60% 29.91 in 10.0 mi NNW 3.5 mph - N/A   Overcast
5:54 AM 21.0 °F 14.6 °F 8.1 °F 57% 29.93 in 10.0 mi North 4.6 mph - N/A   Overcast
6:54 AM 19.0 °F 12.3 °F 8.1 °F 62% 29.96 in 10.0 mi NE 4.6 mph - N/A   Overcast
7:54 AM 18.0 °F 12.7 °F 9.0 °F 68% 29.99 in 7.0 mi NNE 3.5 mph - 0.00 in Snow Light Snow
8:04 AM 17.6 °F - 10.4 °F 73% 29.90 in 1.8 mi Calm Calm - 0.00 in Snow Light Snow
8:12 AM 17.6 °F - 10.4 °F 73% 29.90 in 1.0 mi Calm Calm - 0.00 in Snow Light Snow
8:45 AM 17.6 °F - 12.2 °F 79% 29.91 in 0.8 mi Calm Calm - 0.00 in Snow Light Snow
8:54 AM 17.1 °F - 12.9 °F 84% 30.01 in 0.5 mi Calm Calm - 0.00 in Fog , Snow Snow
9:01 AM 17.6 °F - 12.2 °F 79% 29.91 in 0.5 mi Calm Calm - 0.00 in Fog , Snow Snow
9:29 AM 17.6 °F 12.3 °F 14.0 °F 86% 29.92 in 0.8 mi WSW 3.5 mph - 0.00 in Snow Light Snow
9:36 AM 17.6 °F - 12.2 °F 79% 29.92 in 1.2 mi Calm Calm - 0.00 in Snow Light Snow
9:54 AM 19.0 °F - 14.0 °F 81% 30.03 in 1.2 mi Calm Calm - 0.00 in Snow Light Snow
10:07 AM 19.4 °F 14.3 °F 14.0 °F 80% 29.93 in 2.0 mi NNW 3.5 mph - 0.00 in Snow Light Snow
10:16 AM 19.4 °F - 15.8 °F 86% 29.93 in 6.0 mi Calm Calm - 0.00 in   Haze
10:54 AM 19.9 °F - 15.1 °F 81% 30.04 in 10.0 mi Calm Calm - 0.00 in   Overcast
11:54 AM 21.9 °F - 15.1 °F 75% 29.99 in 10.0 mi Calm Calm - N/A   Overcast
12:54 PM 24.1 °F - 16.0 °F 71% 29.96 in 10.0 mi Calm Calm - 0.01 in   Overcast
1:54 PM 25.0 °F - 15.1 °F 66% 29.95 in 10.0 mi Calm Calm - 0.01 in   Overcast
2:54 PM 24.1 °F 18.2 °F 14.0 °F 65% 29.97 in 10.0 mi ENE 4.6 mph - N/A   Overcast
3:54 PM 21.9 °F 15.7 °F 12.9 °F 68% 29.99 in 10.0 mi East 4.6 mph - N/A   Clear
4:54 PM 19.0 °F 13.9 °F 14.0 °F 81% 30.03 in 10.0 mi SE 3.5 mph - N/A   Mostly Cloudy
5:54 PM 19.9 °F - 15.1 °F 81% 30.05 in 10.0 mi Calm Calm - N/A   Overcast
7:54 PM 18.0 °F - 14.0 °F 84% 30.11 in 10.0 mi Calm Calm - N/A   Overcast
11:54 PM 16.0 °F - 14.0 °F 92% 30.13 in 10.0 mi Calm Calm - N/A   Mostly Cloudy